Weather History for Springfield, MO

Change the Weather History Date:

Wednesday, March 5, 2014

  Actual Average Record
Temperature  
Mean Temperature 35 °F 43 °F  
Max Temperature 49 °F 54 °F 82 °F (1908)
Min Temperature 21 °F 32 °F 2 °F (1960)
Degree Days  
Heating Degree Days 30 22  
Month to date heating degree days 196 113  
Since 1 July heating degree days 4151 3706  
Cooling Degree Days 0 0  
Month to date cooling degree days 0 0  
Year to date cooling degree days 0 0  
Moisture  
Dew Point 21 °F    
Average Humidity 57    
Maximum Humidity 77    
Minimum Humidity 37    
Precipitation  
Precipitation 0.00 in 0.11 in 2.87 in (1961)
Month to date precipitation 0.21 0.52  
Year to date precipitation 2.00 5.51  
Snow  
Snow 0.00 in - - ()
Month to date snowfall 3.8  
Since 1 July snowfall 31.2  
Snow Depth 0.00 in    
Sea Level Pressure  
Sea Level Pressure 30.14 in    
Wind  
Wind Speed 6 mph (East)    
Max Wind Speed 15 mph    
Max Gust Speed 18 mph    
Visibility 10 miles    
Events      
T = Trace of Precipitation, MM = Missing Value Source: NWS Daily Summary

Daily Weather History Graph

Daily Weather History Graph

Search for Another Location

Airport:

Trip Planner

Search our weather history database for the weather conditions in past years. The results will help you decide how hot, cold, wet, or windy it might be!

Date:

Astronomy

Mar. 05, 2014 Rise Set
Actual Time 6:39 AM CST 6:11 PM CST
Civil Twilight 6:13 AM CST 6:37 PM CST
Nautical Twilight 5:42 AM CST 7:07 PM CST
Astronomical Twilight 5:12 AM CST 7:38 PM CST
Moon 9:11 AM CST (3/5) 11:13 PM CST (3/5)
Length of Visible Light 12h 24m
Length of Day
11h 32m
Waxing Crescent, 23% of the Moon is Illuminated
Mar 5
Waxing Crescent
Mar 8
First Quarter
Mar 16
Full
Mar 23
Last Quarter
Mar 30
New

Hourly Weather History & Observations

Time (CST) Temp. Windchill Dew Point Humidity Pressure Visibility Wind Dir Wind Speed Gust Speed Precip Events Conditions
12:52 AM 28.9 °F 18.2 °F 16.0 °F 58% 30.07 in 10.0 mi SSE 13.8 mph - N/A   Clear
1:52 AM 28.0 °F 17.0 °F 16.0 °F 61% 30.09 in 10.0 mi SSE 13.8 mph - N/A   Clear
2:52 AM 28.0 °F 20.0 °F 16.0 °F 61% 30.09 in 10.0 mi SSE 8.1 mph - N/A   Clear
3:52 AM 27.0 °F - 16.0 °F 63% 30.11 in 10.0 mi Calm Calm - N/A   Clear
4:52 AM 21.9 °F 14.5 °F 15.1 °F 75% 30.13 in 10.0 mi SE 5.8 mph - N/A   Clear
5:52 AM 24.1 °F 17.0 °F 15.1 °F 69% 30.14 in 10.0 mi SE 5.8 mph - N/A   Clear
6:52 AM 25.0 °F 16.3 °F 16.0 °F 69% 30.14 in 10.0 mi SE 8.1 mph - N/A   Clear
7:52 AM 30.0 °F 21.7 °F 17.1 °F 59% 30.16 in 10.0 mi SSE 9.2 mph - N/A   Clear
8:52 AM 33.1 °F 27.7 °F 16.0 °F 50% 30.16 in 10.0 mi SSE 5.8 mph - N/A   Clear
9:52 AM 37.9 °F 32.7 °F 17.1 °F 43% 30.16 in 10.0 mi SSE 6.9 mph - N/A   Clear
10:52 AM 39.9 °F 37.8 °F 18.0 °F 41% 30.16 in 10.0 mi SSE 3.5 mph - N/A   Clear
11:52 AM 44.1 °F - 19.0 °F 37% 30.15 in 10.0 mi Calm Calm - N/A   Clear
12:52 PM 46.0 °F 44.8 °F 21.9 °F 39% 30.13 in 10.0 mi Variable 3.5 mph - N/A   Clear
1:52 PM 48.0 °F - 25.0 °F 41% 30.11 in 10.0 mi NW 5.8 mph - N/A   Clear
2:52 PM 48.0 °F - 25.0 °F 41% 30.11 in 10.0 mi NW 11.5 mph - N/A   Clear
3:52 PM 48.9 °F - 24.1 °F 38% 30.12 in 10.0 mi NNW 4.6 mph - N/A   Clear
4:52 PM 46.0 °F 42.5 °F 28.0 °F 50% 30.13 in 10.0 mi NNW 6.9 mph - N/A   Clear
5:52 PM 46.0 °F 43.9 °F 25.0 °F 44% 30.14 in 10.0 mi North 4.6 mph - N/A   Mostly Cloudy
6:52 PM 43.0 °F 40.3 °F 26.1 °F 51% 30.15 in 10.0 mi NNW 4.6 mph - N/A   Overcast
7:52 PM 37.9 °F - 27.0 °F 65% 30.17 in 10.0 mi Calm Calm - N/A   Scattered Clouds
8:52 PM 39.0 °F 36.8 °F 27.0 °F 62% 30.16 in 10.0 mi North 3.5 mph - N/A   Partly Cloudy
9:52 PM 36.0 °F 30.3 °F 27.0 °F 70% 30.19 in 10.0 mi NNW 6.9 mph - N/A   Mostly Cloudy
10:52 PM 36.0 °F 32.1 °F 26.1 °F 67% 30.18 in 10.0 mi NNE 4.6 mph - N/A   Mostly Cloudy
11:52 PM 35.1 °F 31.0 °F 27.0 °F 72% 30.19 in 10.0 mi North 4.6 mph - N/A   Overcast